Location: Shenandoah County Park
(38.9356°N, 78.4524°W)
Time: 05:01:08
(UTC-04:00)

Explorer 11/Cluster Stage 4 - Pass Details

Date: 27 February 2024
Orbit: 465 x 1220 km, 28.8° (Epoch: 12 April)

Event Time Altitude Azimuth Distance (km) Brightness Sun altitude
Rises 00:39:43 0° 237° (WSW) 4,093 - -59.4°
Reaches altitude 10° 00:42:53 10° 229° (SW) 3,157 - -59.4°
Maximum altitude 00:49:53 34° 168° (SSE) 1,880 - -59.1°
Drops below altitude 10° 00:56:35 10° 108° (ESE) 3,017 - -58.8°
Sets 00:59:32 0° 99° (E) 3,890 - -58.7°
